Flag for France Weather past 2 weeks in Toulon, France

73 °F

Passing clouds.

Feels Like: 77 °F
Forecast: 53 / 72 °F
Wind: 12 mph from Northwest

Location: Hyeres Airport

Current Time: Oct 7, 2015 at 11:31:37 AM

Latest Report: Oct 7, 2015 at 11:00 AM

Visibility: N/A

Pressure: 29.86 "Hg

Humidity: 36%

Dew point: 45 °F

Location of ToulonLocation

Historic Weather in Toulon — Graph


Toulon temperature yesterday

Maximum temperature yesterday: 73 °F (at 1:00 PM)
Minimum temperature yesterday: 64 °F (at 5:30 AM)
Average temperature yesterday: 69 °F

Past Weeks' High & Low Weather Summary

High79 °F (Sep 25, 12:00 PM)100% (Sep 29, 2:00 AM)30.21 "Hg (Sep 29, 2:00 AM)
Low54 °F (Sep 24, 10:30 PM)23% (Sep 23, 1:00 PM)29.71 "Hg (Sep 23, 11:30 AM)
Average66 °F66%30.00 "Hg
* Reported Sep 22 10:00 AM — Oct 7 10:30 AM, Toulon, Weather by CustomWeather, © 2015

Note: Actual official high and low records may vary slightly from our data, if they occured in-between our weather recording intervals... More about our weather records


Toulon weather history for previous 24 hours

Time TempWeatherWind HumidityBarometerVisibility
10:30 AM
Wed, Oct 7
72 °FSunny.15 mph38%29.86 "Hg10 mi
10:00 AM72 °FPassing clouds.18 mph38%29.86 "HgN/A
9:30 AM70 °FSunny.16 mph40%29.83 "Hg10 mi
9:00 AM68 °FPassing clouds.8 mph43%29.83 "HgN/A
8:30 AM66 °FClear.10 mph49%29.83 "Hg10 mi
8:00 AM64 °FClear.9 mph52%29.83 "Hg10 mi
7:30 AM66 °FClear.13 mph52%29.83 "Hg10 mi
7:00 AM68 °FClear.12 mph46%29.83 "Hg10 mi
6:30 AM66 °FClear.9 mph52%29.83 "Hg10 mi
6:00 AM66 °FClear.9 mph60%29.83 "Hg10 mi
5:30 AM66 °FClear.7 mph60%29.83 "Hg10 mi
4:30 AM63 °FClear.9 mph77%29.83 "Hg10 mi
4:00 AM61 °FClear.5 mph83%29.83 "Hg10 mi
3:30 AM63 °FClear.8 mph77%29.83 "Hg10 mi
3:00 AM63 °FClear.6 mph77%29.83 "Hg10 mi
2:30 AM63 °FClear.3 mph77%29.83 "Hg10 mi
2:00 AM64 °FPassing clouds.9 mph73%29.83 "HgN/A
1:30 AM63 °FClear.6 mph77%29.83 "Hg10 mi
1:00 AM63 °FMild.7 mph88%29.83 "HgN/A
12:30 AM64 °FThundershowers. Partly cloudy.8 mph83%29.86 "HgN/A
12:00 AM66 °FThunderstorms. Overcast.5 mph88%29.83 "Hg5 mi
11:30 PM
Tue, Oct 6
68 °FPassing clouds.3 mph78%29.83 "HgN/A
11:00 PM68 °FThundershowers. Partly cloudy.6 mph78%29.83 "HgN/A
10:30 PM68 °FPassing clouds.7 mph83%29.80 "HgN/A
10:00 PM66 °FPassing clouds.6 mph88%29.80 "HgN/A
9:30 PM68 °FPartly cloudy.7 mph83%29.80 "HgN/A
9:00 PM66 °FPassing clouds.3 mph88%29.80 "HgN/A
8:30 PM66 °FClear.3 mph88%29.77 "Hg10 mi
8:00 PM66 °FPartly sunny.2 mph88%29.77 "HgN/A
7:30 PM68 °FPartly sunny.5 mph83%29.77 "HgN/A
7:00 PM70 °FPassing clouds.8 mph83%29.74 "HgN/A
6:30 PM70 °FPartly sunny.8 mph83%29.74 "HgN/A
6:00 PM70 °FSunny.10 mph83%29.74 "Hg10 mi
5:30 PM72 °FSunny.10 mph78%29.74 "Hg10 mi
5:00 PM72 °FPassing clouds.10 mph78%29.74 "HgN/A
4:30 PM72 °FPartly sunny.10 mph78%29.74 "HgN/A
4:00 PM72 °FMostly cloudy.12 mph78%29.74 "HgN/A
3:30 PM72 °FPartly sunny.14 mph78%29.74 "HgN/A
3:00 PM73 °FMostly cloudy.14 mph74%29.77 "HgN/A
2:30 PM72 °FMostly cloudy.14 mph78%29.74 "HgN/A
2:00 PM72 °FPartly sunny.16 mph78%29.77 "HgN/A
1:30 PM73 °FPartly sunny.16 mph74%29.77 "HgN/A
1:00 PM73 °FOvercast.16 mph74%29.77 "HgN/A
12:30 PM72 °FOvercast.16 mph73%29.77 "HgN/A
12:00 PM72 °FOvercast.16 mph73%29.80 "HgN/A
11:30 AM72 °FOvercast.N/A73%29.80 "HgN/A
11:00 AM70 °FOvercast.N/A78%29.80 "HgN/A
Weather by CustomWeather, © 2015

See weather overviewHow to use our weather pages